User: anonymous   Login
Location: Moscow
(55.7500°N, 37.5830°E)
Time: 04:55:25
(UTC+03:00)
Language:

NRL adapter - Orbit

View from above orbital plane
View from above orbital plane
View from above satellite
View from above satellite

Ground track
Ground track

The orbit data is extracted from the following two-line orbital elements,

1 01504U 65065A   22181.59964566  .00000075  00000-0  11944-3 0  9990
2 01504  89.8828 252.8198 0066607  12.3731 112.3857 13.39625596773847
Epoch (UTC): 30 June 2022 14:23:29
Eccentricity: 0.0066607
inclination: 89.8828°
perigee height: 1061 km
apogee height: 1160 km
right ascension of ascending node: 252.8198°
argument of perigee: 12.3731°
revolutions per day: 13.39625596
mean anomaly at epoch: 112.3857°
orbit number at epoch: 77384

The dashed part of the orbit path shows where the satellite is in the earth's shadow,  

DLR